Temperature
7 7 7 7 7 8 8 8 8 9 9 9 9 9 9 9 9 9 9 10 9 9 9 9 9 10 9 9 9 9 9 9 9 9 9 9 9 8 8 8 8 8 7
6 7 7 7 7 7 7 8 8 8 8 8 8 9 9 9 9 9 9 9 9 9 9 9 9 9 9 9 9 9 9 9 9 9 9 8 8 8 8 8 8 7 7
6 6 6 6 7 7 7 7 8 8 8 8 8 8 9 9 9 9 9 9 9 9 9 9 9 9 9 9 9 9 9 9 9 8 8 8 8 8 8 8 7 7 7
5 5 5 6 6 6 7 7 7 8 8 8 8 8 8 9 9 9 9 9 9 9 9 9 9 9 9 9 9 9 9 8 8 8 8 8 8 7 7 7 7 7 7
4 5 5 5 5 6 6 7 7 7 7 7 8 8 8 8 9 9 9 9 9 9 9 9 9 9 9 9 9 9 8 8 8 8 7 7 7 7 7 7 7 6 6
4 4 4 5 5 5 6 6 6 7 7 7 7 8 8 8 8 9 8 8 8 8 9 9 9 8 8 9 8 8 8 8 8 7 7 7 7 7 7 6 6 6 5
3 4 4 4 4 5 5 5 6 6 6 6 7 7 8 8 8 8 8 8 8 8 8 8 8 8 8 8 8 8 8 7 7 7 7 7 6 6 6 6 6 5 5
3 3 3 3 4 4 5 5 5 6 6 6 6 7 7 7 8 8 8 8 8 8 8 8 8 8 8 8 8 8 7 7 7 7 7 6 6 6 6 6 5 5 5
3 3 3 3 3 4 4 5 5 5 5 6 6 6 7 7 7 7 7 7 7 7 7 8 8 8 8 8 7 7 7 7 7 6 6 6 6 5 5 5 5 4 4
2 2 3 3 3 3 4 4 4 5 5 5 5 6 6 6 7 7 7 7 7 7 7 7 7 8 8 7 7 7 7 7 6 6 6 5 5 5 5 5 4 4 4
2 2 2 2 2 3 3 4 4 4 5 5 5 5 6 6 6 6 6 6 6 6 7 7 7 7 7 7 7 7 7 6 6 6 5 5 5 5 4 4 3 3 3
1 2 2 2 2 2 3 3 4 4 4 5 5 5 5 6 6 6 6 6 6 6 6 6 7 7 7 7 6 6 6 6 5 5 5 5 4 4 4 3 3 3 2
1 1 1 2 2 2 2 3 3 3 3 4 4 4 5 5 5 5 5 6 6 6 6 6 6 6 6 6 6 6 6 5 5 5 4 4 3 3 3 3 2 2 2
1 1 1 2 2 2 2 2 2 3 3 3 3 4 4 4 5 5 5 5 5 5 5 5 5 6 6 6 5 5 5 5 5 4 4 3 3 3 2 2 2 2 1
1 1 1 1 2 2 2 2 2 2 2 2 3 3 3 4 4 4 4 4 5 5 5 5 5 5 5 5 5 4 4 4 4 4 3 3 3 2 2 2 1 1 1
0 0 1 1 1 1 2 2 2 2 2 2 2 3 3 3 3 4 4 4 4 4 4 4 4 4 4 4 4 4 4 3 3 3 3 3 2 2 2 1 1 1 0
-0 0 0 1 1 1 1 1 2 2 2 2 2 2 3 3 3 3 3 4 4 4 4 4 4 4 4 4 3 3 3 3 3 3 2 2 2 1 1 1 0 0 -0
-0 -0 -0 0 0 1 1 1 1 1 1 2 2 2 2 3 3 3 3 3 3 3 4 3 3 4 3 3 3 3 2 2 2 2 2 1 1 1 1 0 0 -0 -0
-1 -1 -1 -0 -0 0 0 0 0 0 0 1 1 2 2 2 2 3 3 3 3 3 3 3 3 3 3 3 2 2 2 2 2 2 1 1 1 1 0 0 -0 -1 -1
-1 -1 -1 -1 -1 -1 -0 -0 -0 -0 -0 0 0 1 1 2 2 2 2 2 2 2 2 3 3 3 3 2 2 2 2 2 1 1 1 1 1 0 0 -0 -1 -1 -1
-2 -2 -2 -1 -1 -1 -1 -1 -1 -1 -1 -0 -0 0 0 1 1 1 2 2 2 2 2 2 2 2 2 2 2 2 1 1 1 1 1 1 0 -0 -0 -1 -1 -1 -2
-2 -2 -2 -2 -2 -2 -2 -2 -2 -1 -1 -1 -1 -0 0 0 1 1 1 1 1 1 1 1 2 1 1 1 1 1 1 1 1 1 1 0 0 -0 -1 -1 -1 -2 -2
-3 -3 -3 -2 -2 -2 -2 -2 -2 -2 -2 -1 -1 -1 -0 -0 0 0 0 1 1 1 1 1 1 1 1 1 1 1 1 1 1 1 0 0 -0 -1 -1 -1 -2 -2 -2
-3 -3 -3 -3 -3 -3 -3 -3 -3 -2 -2 -2 -1 -1 -1 -1 -0 -0 -0 -0 0 0 0 0 1 1 1 1 0 0 0 0 0 0 0 -0 -0 -1 -1 -2 -2 -2 -2
-4 -4 -4 -3 -3 -3 -3 -3 -3 -2 -2 -2 -2 -1 -1 -1 -1 -1 -1 -1 -0 -0 -0 -0 -0 0 0 0 0 0 0 -0 -0 -0 -1 -1 -1 -1 -1 -2 -2 -2 -2
-5 -4 -4 -4 -4 -4 -3 -3 -3 -3 -3 -2 -2 -2 -1 -1 -1 -1 -1 -1 -1 -1 -1 -1 -0 -0 -0 -0 -0 -0 -0 -0 -1 -1 -1 -1 -1 -1 -2 -2 -2 -2 -3
Wind_Speed
4 4 4 4 4 5 6 7 7 7 7 8 9 11 11 12 12 11 11 11 12 11 10 11 10 8 8 7 6 5 5 5 6 3 2 2 3 3 2 3 4 4 4
4 4 4 4 4 4 5 6 6 7 7 7 7 9 10 12 12 13 12 12 12 12 12 11 11 8 9 7 7 7 6 6 5 5 2 2 3 3 2 2 2 2 3
4 4 4 3 3 4 5 5 5 6 6 6 7 7 8 10 10 11 11 11 11 11 12 12 11 10 10 8 8 7 6 5 4 4 3 2 1 1 1 1 2 1 2
4 4 4 4 5 5 5 3 4 5 6 6 6 7 7 8 9 10 10 10 9 9 10 10 10 11 11 10 8 8 6 5 4 4 3 2 2 1 2 1 2 1 2
4 4 4 5 5 5 4 3 2 4 5 5 5 6 7 7 8 10 10 10 9 9 8 9 9 10 11 10 8 8 7 6 5 4 3 2 2 2 3 2 2 1 1
4 4 4 4 5 4 4 2 2 2 3 4 4 5 6 7 8 10 10 9 9 9 8 8 8 9 10 11 11 10 10 8 7 5 4 4 5 4 3 2 2 1 2
4 5 5 5 5 5 4 2 2 2 2 3 3 4 5 6 9 10 11 9 8 8 8 8 7 7 9 8 9 9 8 9 9 7 6 6 5 6 4 3 2 2 2
5 6 6 5 5 4 4 2 2 2 2 2 3 4 4 6 7 8 9 9 8 7 7 8 9 8 8 9 8 6 5 5 6 5 5 5 4 4 5 4 3 1 1
5 6 6 6 5 4 4 4 3 2 2 2 3 3 4 5 7 7 6 6 6 7 6 7 8 8 11 12 9 7 5 3 3 5 4 4 5 5 5 4 3 1 1
6 6 6 5 5 5 4 4 3 2 3 2 3 3 4 5 7 7 6 5 5 5 5 6 9 10 11 13 10 9 7 5 5 4 4 4 4 4 4 3 4 2 1
6 6 6 6 5 4 4 4 4 2 2 2 2 2 3 4 5 7 6 5 5 5 5 5 6 10 12 12 10 8 8 7 6 5 4 4 3 2 2 2 1 2 2
5 5 6 6 5 4 3 4 4 2 1 1 1 2 3 4 5 6 6 5 5 4 4 4 5 8 10 11 8 8 11 9 6 5 4 3 2 2 2 2 3 3 2
5 5 6 6 5 4 3 3 3 1 0 1 1 2 2 2 3 5 6 6 5 3 3 4 6 8 8 7 9 11 10 6 6 5 4 3 2 3 3 3 4 4 4
4 5 5 5 4 4 3 2 2 1 1 1 2 2 2 2 3 3 3 4 4 3 3 4 5 6 6 7 8 7 5 5 6 5 4 4 3 3 2 2 1 1 2
4 4 4 4 3 4 3 2 2 2 2 2 3 3 3 3 3 3 3 3 3 4 4 3 3 4 4 4 4 4 4 5 5 4 5 4 4 3 2 2 1 1 1
3 4 3 3 3 3 3 3 3 1 3 4 3 3 2 3 4 3 3 3 4 6 4 4 4 4 4 4 4 4 4 4 5 5 5 5 4 4 3 2 1 1 1
3 3 3 3 3 2 1 1 3 4 4 3 3 2 2 2 3 3 4 4 5 5 4 4 4 5 4 4 4 4 3 4 4 5 5 5 4 4 3 3 2 1 1
3 3 3 3 3 1 1 1 1 1 2 3 3 3 1 1 3 4 5 4 3 3 3 4 4 4 4 4 4 4 4 4 4 5 5 5 5 4 4 3 2 2 1
2 2 2 2 2 1 0 1 1 1 1 2 3 3 2 1 2 4 5 3 4 3 3 3 3 4 4 4 4 4 5 5 5 5 5 5 5 4 4 3 3 3 2
2 4 3 2 1 0 0 1 1 1 1 1 2 2 1 1 2 2 2 2 3 3 3 3 3 4 4 5 5 5 4 5 5 4 5 4 4 4 5 4 4 3 2
2 2 3 2 1 1 0 1 1 1 1 2 2 3 3 1 1 1 1 1 2 3 3 3 3 4 4 4 5 5 5 4 4 5 5 5 5 4 4 4 4 3 3
1 1 1 1 1 1 1 1 1 1 1 1 2 3 3 1 1 1 1 1 1 2 3 3 3 3 4 5 5 6 6 5 5 5 5 5 5 5 5 4 4 4 4
1 1 1 1 1 2 1 1 1 1 1 2 2 2 1 0 1 1 1 1 1 2 2 2 3 3 3 4 4 5 6 6 6 6 6 5 5 5 5 5 5 5 4
1 1 1 1 1 1 1 1 1 1 1 1 2 2 1 1 0 1 1 1 2 2 2 2 2 4 6 5 4 4 5 6 6 6 7 7 6 5 5 5 5 5 5
1 1 1 1 1 2 2 2 1 1 2 2 2 1 1 1 1 1 1 2 2 2 2 2 3 4 6 6 6 6 8 10 9 8 6 6 7 6 6 6 5 5 5
1 1 1 2 2 2 2 2 2 2 2 2 2 1 1 1 1 1 1 2 2 2 2 2 3 4 6 6 7 10 11 11 11 10 8 7 7 6 6 6 7 6 6
Wind_Direction
281 277 273 274 267 248 239 239 231 220 216 219 215 209 207 203 198 198 203 193 196 195 191 196 204 196 196 194 188 193 201 197 226 237 199 192 184 198 209 211 219 223 241
289 284 283 277 279 266 257 253 229 219 215 213 214 213 210 205 198 199 199 192 194 196 194 197 202 196 196 191 190 195 202 201 204 224 219 202 206 199 194 201 225 226 241
299 293 290 288 287 284 272 252 227 214 212 211 210 214 214 205 198 200 192 190 192 195 194 197 198 192 198 195 194 198 201 197 196 202 219 204 205 178 181 217 225 243 257
315 308 306 305 294 290 286 258 231 212 208 212 216 216 213 204 199 194 188 186 191 193 196 198 198 196 197 196 197 198 192 185 183 190 204 204 199 176 163 215 249 248 260
320 320 315 313 310 307 307 275 248 225 217 216 220 218 205 201 196 188 185 185 188 191 195 199 200 196 193 193 192 190 186 187 184 192 203 202 198 186 208 201 224 272 255
319 317 317 323 322 315 311 295 279 246 228 223 215 216 208 204 190 189 188 186 187 189 195 199 198 192 189 189 187 185 185 187 192 196 207 211 215 209 194 191 186 203 254
323 324 326 328 323 318 314 308 297 261 234 228 223 217 216 197 184 184 186 188 189 192 194 193 195 192 185 185 185 185 190 191 190 194 203 212 206 200 183 188 202 214 225
327 327 327 330 324 319 315 301 296 277 226 227 236 232 214 191 177 178 184 190 191 192 195 193 192 189 185 178 176 180 190 196 198 199 201 206 202 188 184 186 182 144 89
325 322 322 325 322 318 313 303 290 289 265 238 240 224 208 189 175 173 173 183 187 189 192 191 188 188 183 173 172 175 173 167 145 146 142 143 147 152 146 130 137 133 225
316 314 316 318 313 308 307 303 302 286 262 247 234 219 206 191 177 170 166 177 182 186 186 191 191 189 182 174 175 175 180 175 146 124 106 97 100 119 129 154 167 167 173
308 314 316 318 313 307 313 314 311 292 273 235 220 224 197 188 177 173 172 176 179 182 187 192 195 185 181 178 179 183 180 162 152 141 127 114 101 93 79 65 84 154 183
315 316 316 318 316 320 328 328 323 300 252 205 212 228 183 180 181 177 178 179 174 178 188 190 188 180 177 175 175 165 154 146 143 139 136 138 132 113 92 73 61 54 65
317 315 315 319 319 323 327 326 326 303 204 226 211 218 195 180 178 178 175 175 172 171 180 184 180 174 164 164 159 155 152 148 147 148 154 159 146 135 116 90 70 65 57
307 312 319 324 326 329 326 317 309 295 270 249 233 220 201 185 171 163 161 159 153 144 142 146 142 143 141 141 146 147 149 152 152 153 148 138 132 127 119 108 95 86 57
307 313 319 324 326 328 327 312 298 275 264 252 239 227 202 200 201 185 169 169 165 161 148 143 137 135 133 134 136 137 137 137 137 138 138 140 139 133 126 109 93 80 69
304 308 309 318 318 320 324 336 324 301 316 309 286 260 250 225 208 200 186 172 160 157 148 156 156 153 155 158 156 149 145 143 144 143 143 148 151 148 137 117 101 108 103
283 293 301 309 310 314 336 357 347 2 9 1 0 332 279 218 186 179 167 155 157 156 155 162 165 162 158 159 162 159 156 149 148 146 146 150 149 145 142 138 129 116 91
285 288 296 298 303 308 327 329 320 335 347 355 1 355 331 188 164 160 150 135 152 156 160 164 167 162 157 155 153 147 142 144 146 146 146 150 151 149 147 146 149 147 129
284 290 295 297 296 291 335 347 343 342 335 333 342 353 15 78 136 152 149 154 173 173 164 160 163 159 152 148 148 145 148 151 150 148 149 153 154 148 146 146 147 141 123
278 288 300 302 303 322 23 360 344 354 338 332 327 323 343 39 148 155 151 158 169 168 164 159 159 155 149 148 147 146 143 147 149 151 153 154 152 149 149 148 149 149 146
279 292 299 307 305 307 343 327 306 297 304 312 307 295 292 258 210 185 177 176 173 167 162 158 160 158 152 149 151 152 149 149 151 154 153 153 148 144 145 144 141 136 129
264 275 275 268 279 291 302 290 286 267 278 297 313 311 321 333 172 168 170 179 159 156 158 159 164 166 162 162 160 156 154 153 154 154 149 146 143 143 141 137 132 126 122
258 270 274 271 277 288 304 305 283 264 272 286 295 300 305 283 173 163 161 138 125 122 129 142 151 156 149 148 154 159 162 166 167 160 153 146 142 143 142 139 138 136 133
246 252 240 260 264 267 267 279 280 272 276 285 293 285 273 256 169 148 143 129 120 115 115 132 151 159 151 144 140 141 146 148 146 149 150 148 144 142 139 138 138 140 137
239 233 249 260 259 267 268 276 280 277 282 281 280 268 238 182 147 127 125 128 123 121 118 125 140 146 147 147 147 144 146 144 141 138 137 138 136 138 140 137 137 136 132
227 224 244 248 246 255 253 260 269 267 273 273 261 235 191 167 151 138 135 133 129 123 116 117 133 140 142 141 142 142 142 143 142 139 134 132 133 135 137 135 134 133 131
Height
1374 1374 1373 1372 1372 1373 1373 1374 1376 1377 1380 1382 1385 1388 1390 1393 1397 1401 1404 1408 1412 1416 1420 1424 1428 1432 1436 1438 1441 1444 1446 1448 1448 1449 1451 1452 1453 1454 1454 1455 1455 1455 1454
1370 1370 1369 1368 1368 1368 1368 1369 1370 1372 1374 1376 1379 1382 1384 1387 1391 1395 1398 1402 1406 1410 1414 1419 1423 1427 1430 1433 1436 1438 1441 1443 1444 1444 1446 1447 1448 1449 1450 1450 1450 1449 1449
1368 1366 1365 1364 1363 1363 1363 1363 1365 1367 1369 1371 1374 1376 1378 1381 1385 1389 1393 1396 1401 1404 1409 1413 1417 1421 1424 1427 1430 1432 1435 1437 1439 1440 1440 1442 1443 1444 1444 1445 1444 1444 1444
1364 1363 1361 1360 1359 1358 1358 1358 1360 1362 1364 1366 1368 1370 1374 1377 1380 1383 1387 1391 1395 1399 1404 1408 1411 1414 1417 1421 1424 1427 1430 1432 1434 1435 1435 1437 1437 1438 1439 1439 1439 1439 1438
1362 1360 1358 1357 1356 1355 1354 1354 1356 1357 1359 1361 1363 1366 1368 1372 1375 1378 1382 1386 1390 1394 1399 1402 1406 1409 1412 1416 1418 1421 1424 1426 1428 1429 1430 1431 1432 1433 1433 1434 1434 1433 1433
1359 1357 1356 1354 1353 1352 1351 1352 1352 1353 1354 1356 1359 1361 1364 1367 1370 1374 1377 1381 1385 1389 1393 1397 1401 1404 1408 1411 1413 1416 1419 1421 1422 1423 1424 1425 1427 1428 1429 1429 1429 1428 1428
1357 1355 1353 1352 1350 1349 1349 1349 1350 1350 1351 1353 1355 1357 1360 1363 1366 1369 1373 1377 1380 1384 1387 1391 1395 1398 1402 1405 1408 1411 1414 1416 1418 1419 1420 1421 1422 1423 1424 1424 1424 1424 1424
1354 1352 1351 1349 1348 1347 1347 1346 1346 1347 1348 1349 1351 1353 1356 1359 1362 1365 1369 1373 1376 1379 1383 1387 1390 1393 1396 1400 1403 1405 1407 1410 1412 1414 1416 1417 1418 1419 1420 1420 1420 1420 1420
1352 1350 1348 1347 1346 1345 1344 1343 1344 1344 1345 1346 1348 1350 1352 1355 1359 1362 1365 1368 1371 1375 1379 1382 1385 1388 1391 1395 1397 1400 1402 1404 1407 1409 1411 1412 1414 1415 1415 1416 1415 1415 1415
1350 1348 1346 1345 1343 1342 1341 1340 1340 1341 1341 1343 1345 1347 1349 1351 1355 1358 1362 1364 1367 1370 1374 1378 1381 1383 1386 1389 1392 1394 1396 1399 1402 1404 1406 1407 1409 1410 1411 1411 1412 1411 1411
1349 1347 1344 1343 1341 1340 1339 1338 1337 1337 1339 1340 1342 1344 1346 1348 1351 1355 1358 1361 1363 1366 1369 1372 1375 1378 1381 1385 1387 1390 1392 1395 1397 1399 1401 1403 1404 1405 1406 1407 1408 1409 1408
1346 1344 1342 1340 1338 1337 1336 1335 1335 1335 1336 1337 1339 1341 1343 1346 1349 1352 1355 1358 1361 1363 1365 1368 1371 1374 1377 1380 1383 1386 1389 1391 1393 1395 1397 1398 1400 1401 1402 1404 1404 1405 1405
1344 1341 1339 1337 1336 1335 1333 1332 1332 1333 1334 1335 1336 1338 1340 1343 1346 1349 1352 1355 1357 1360 1362 1365 1367 1370 1373 1376 1379 1381 1384 1386 1388 1390 1392 1394 1396 1398 1399 1400 1401 1402 1402
1341 1339 1337 1334 1333 1332 1332 1331 1331 1331 1332 1332 1334 1336 1338 1340 1343 1346 1349 1352 1354 1356 1359 1361 1364 1366 1369 1371 1374 1377 1380 1382 1384 1387 1389 1391 1393 1394 1396 1397 1398 1399 1399
1338 1336 1335 1333 1331 1330 1330 1330 1330 1330 1331 1331 1332 1334 1336 1337 1340 1343 1345 1348 1351 1353 1356 1358 1360 1362 1364 1367 1370 1373 1376 1378 1381 1383 1385 1387 1389 1391 1392 1394 1395 1396 1397
1335 1334 1332 1331 1330 1329 1328 1327 1328 1329 1330 1331 1331 1332 1334 1336 1338 1340 1343 1346 1348 1351 1353 1354 1356 1358 1361 1364 1366 1369 1372 1374 1377 1380 1382 1384 1386 1388 1389 1391 1392 1393 1394
1333 1332 1330 1329 1328 1327 1326 1325 1325 1327 1328 1329 1329 1330 1332 1334 1336 1338 1340 1343 1345 1348 1349 1351 1353 1355 1358 1361 1363 1366 1368 1371 1374 1377 1379 1381 1383 1385 1386 1388 1389 1391 1391
1330 1329 1328 1327 1326 1325 1325 1325 1325 1324 1324 1325 1327 1328 1330 1331 1333 1335 1338 1340 1342 1344 1346 1348 1350 1352 1355 1358 1361 1363 1366 1368 1371 1373 1376 1378 1380 1382 1384 1385 1387 1388 1389
1327 1326 1325 1324 1324 1324 1324 1324 1324 1323 1324 1324 1325 1326 1328 1329 1331 1333 1335 1337 1339 1341 1343 1345 1347 1350 1352 1355 1358 1361 1363 1366 1369 1371 1373 1376 1378 1380 1381 1383 1385 1386 1387
1324 1324 1323 1322 1322 1322 1322 1322 1322 1322 1322 1323 1323 1324 1325 1327 1328 1330 1333 1335 1337 1338 1340 1342 1344 1347 1350 1352 1355 1358 1361 1364 1366 1369 1371 1373 1375 1377 1379 1381 1383 1384 1385
1321 1321 1320 1320 1320 1320 1320 1320 1320 1321 1321 1321 1322 1323 1324 1325 1326 1328 1330 1333 1334 1336 1338 1340 1342 1344 1347 1350 1353 1356 1358 1361 1363 1366 1369 1371 1373 1375 1377 1379 1381 1383 1384
1318 1318 1318 1318 1318 1318 1318 1319 1319 1320 1320 1320 1321 1322 1323 1324 1325 1327 1329 1331 1332 1334 1336 1338 1339 1342 1345 1348 1351 1353 1356 1358 1361 1364 1366 1369 1371 1373 1375 1377 1379 1381 1383
1316 1316 1316 1316 1316 1317 1317 1317 1318 1318 1319 1319 1319 1320 1321 1322 1323 1325 1327 1329 1330 1332 1334 1336 1337 1340 1343 1346 1349 1352 1354 1356 1359 1362 1364 1366 1369 1371 1374 1376 1378 1379 1381
1313 1314 1314 1314 1314 1314 1315 1315 1316 1316 1316 1317 1318 1318 1319 1320 1322 1323 1325 1327 1328 1330 1332 1334 1336 1338 1341 1344 1347 1350 1353 1355 1358 1360 1363 1365 1367 1370 1372 1374 1376 1378 1380
1311 1311 1311 1311 1312 1312 1313 1313 1313 1314 1314 1315 1316 1317 1318 1319 1320 1322 1324 1325 1327 1328 1330 1332 1334 1337 1339 1342 1345 1348 1351 1354 1356 1359 1361 1364 1366 1368 1371 1373 1375 1377 1379
1308 1308 1309 1309 1309 1310 1310 1311 1311 1311 1312 1313 1314 1315 1316 1318 1319 1320 1322 1324 1325 1327 1329 1331 1333 1336 1338 1341 1344 1346 1349 1352 1355 1358 1360 1363 1365 1367 1370 1372 1375 1377 1379